www.pogodaiklimat.ru

Погода и климат >> Архив погоды >> Россия >> Ленинградская область >> Озерки


ПОГОДА в Озерках

  • Прогноз погоды в Озерках
  • Монитор погоды в Озерках

АРХИВ ПОГОДЫ в Озерках

Время (UTC), дата Ветер
(напр.,м/с)
 
Видим.   Явления Облачность Т
(С)
Тd
(С)
f
(%)
Тe
(С)
Тes
(С)
Комфортность P
(гПа)
Po
(гПа)
Тmin
(С)
Tmax
(С)
R
(мм)
R24
(мм)
S
(см)
09 12.02 СЗ 1 3000 м н/о +0.4 +0.5 100 -2 -2 998.7 997.3
12 12.02 СЗ 2 8000 м н/о -0.2 -0.4 99 -4 -4 1000.7 999.3
15 12.02 СЗ 2 20 км н/о -2.0 -3.1 92 6
18 12.02 СЗ 2 20 км {ливн. осадки} 10/10 450 м
[St]
-3.6 -4.7 92 -8 -8 1006.8 1005.4 +0.7 3
21 12.02 СЗ 1 20 км н/о -7.1 -7.5 97 -10 -10 1009.4 1008.0
00 13.02 З 1 20 км н/о -7.4 -7.9 96 -10 -10 1011.0 1009.6
03 13.02 н/о н/о -10.2
06 13.02 Ю 1 20 км ясно -5.9 -6.4 96 -8 -8 1009.8 1008.4 -10.2 52
09 13.02 ЮЗ 4 20 км н/о -2.4 -2.6 99 -9 -9 1009.6 1008.2
12 13.02 ЮЗ 4 20 км н/о -2.2 -3.1 94 -8 -8 1009.1 1007.7
15 13.02 н/о н/о
18 13.02 ЮЗ 6 20 км {снег} 10/10 360 м
[St]
-1.0 -1.5 96 -8 -8 1010.4 1009.0 -1.0 0.6
21 13.02 ЮЗ 6 11 км н/о -0.4 -0.6 99 -7 -7 1011.2 1009.8
00 14.02 З 4 1400 м н/о 0.0 0.0 100 -6 -6 1011.3 1009.9
03 14.02 ЮЗ 3 н/о н/о 0.0 0.0 100 -5 -5 1012.0 1010.6 -1.3 1
06 14.02 штиль 0 20 км {снег} 10/10 90 м
[Sc]
+0.2 +0.2 100 -1 -1 1013.4 1012.0 -1.0 1 57
09 14.02 СЗ 1 20 км н/о +1.0 +1.0 100 -1 -1 1017.9 1016.5
12 14.02 З 4 20 км н/о +0.3 +0.3 100 -5 -5 1018.5 1017.1
15 14.02 ЮЗ 4 20 км н/о -0.1 -0.4 98 0.5
18 14.02 ЮЗ 5 20 км 10/0
[Cs]
+0.4 -0.3 95 -6 -6 1014.6 1013.2 +1.0
21 14.02 З 9-11
{11}
900 м н/о +0.9 +0.9 100 -7 -7 1012.0 1010.6
00 15.02 З 7-10
{11}
7000 м н/о +1.0 +1.0 100 -6 -6 1011.3 1009.9
03 15.02 З 7
{10}
20 км н/о +1.3 +0.7 96 -6 -6 1010.8 1009.4 -0.5 0.2
06 15.02 З 4 20 км 8/0
[As trans Cs]
+1.2 -0.1 91 -4 -4 1011.3 1009.9 +0.5 50
09 15.02 З 4
{10}
20 км н/о +1.3 -0.3 89 -4 -4 1011.8 1010.4
12 15.02 З 7
{10}
20 км н/о +1.6 -0.3 87 -5 -5 1011.6 1010.2
15 15.02 З 6 20 км н/о +1.0 -0.5 90 -5 -5 1011.6 1010.2
18 15.02 З 2 20 км 8/0
[As trans Cs]
0.0 -0.8 94 -4 -4 1013.1 1011.7 +1.9
21 15.02 штиль 0 17 км н/о -1.0 -1.2 99 -2 -2 1014.8 1013.4
00 16.02 З 1 20 км н/о -0.9 -0.9 100 -3 -3 1014.7 1013.3
03 16.02 З 1 300 м н/о -0.4 -0.4 100 -1.5
06 16.02 ЮЗ 5 800 м туман 10/10 120 м
[St]
+0.2 +0.2 100 -6 -6 1011.3 1009.9 -1.5 50
09 16.02 ЮЗ 6 20 км н/о +0.8 +0.8 100 -6 -6 1008.2 1006.8
12 16.02 ЮЗ 4 20 км н/о +1.5 +0.1 90 -4 -4 1005.1 1003.7
15 16.02 З 8-11
{11}
20 км н/о +1.4 -0.3 88 -6 -6 1002.7 1001.3 0.3
18 16.02 З 8-11
{13}
20 км {туман} 8/0
[As trans]
+1.2 0.0 92 -6 -6 1000.6 999.2 +2.0
21 16.02 З 4
{11}
12 км н/о +0.5 -0.2 95 -5 -5 999.7 998.3
00 17.02 З 7-10
{10}
20 км н/о -0.3 -1.6 91 -8 -8 999.2 997.8
03 17.02 СЗ 8
{11}
20 км н/о -0.7 -3.4 82 -8 -8 1000.4 999.0 -0.9
06 17.02 З 9-12
{12}
20 км ясно -0.9 -3.4 83 -9 -9 1001.5 1000.1 -1.1
09 17.02 СЗ 9-11
{13}
20 км н/о +0.5 -3.1 77 -7 -7 1004.3 1002.9
12 17.02 СЗ 3
{12}
20 км н/о +3.6 -8.1 42 +1 +1 1008.1 1006.7
15 17.02 СЗ 2
{10}
20 км н/о +1.1 -9.3 46 -2 -2 1012.2 1010.8
18 17.02 СЗ 1 20 км ясно -1.0 -10.3 49 -2 -2 1016.1 1014.7 +3.7
21 17.02 штиль 0 20 км н/о -3.0 -10.8 55 -4 -4 1018.9 1017.5
00 18.02 СЗ 1 20 км н/о -4.3 -10.7 61 -6 -6 1020.8 1019.4
03 18.02 штиль 0 20 км н/о -7.3 -10.2 80 -8 -8 1021.9 1020.5 -7.3
06 18.02 В 1 20 км 1/0
[Ci fib]
-9.3 -10.9 88 -12 -12 1023.3 1021.9 -9.4 47
09 18.02 ЮЗ 1 20 км н/о -3.4 -8.4 68 -5 -5 1023.4 1022.0
12 18.02 н/о н/о
15 18.02 Ю 1 20 км н/о -1.1 -8.2 58 -3 -3 1017.7 1016.3
18 18.02 ЮЗ 5 20 км 10/10 1020 м
[Sc diur, vesp]
-0.2 -5.8 66 -6 -6 1013.6 1012.2 -0.2
21 18.02 ЮЗ 7
{10}
20 км н/о +0.3 -2.4 82 -7 -7 1009.7 1008.3
00 19.02 ЮЗ 10-13
{13}
15 км н/о +0.6 -0.4 93 -8 -8 1007.4 1006.0
03 19.02 З 7-10
{12}
3800 м н/о +0.7 +0.7 100 -1.0 0.4
06 19.02 З 7
{11}
6000 м дымка 10/10 120 м
[St]
+0.8 +0.7 99 -6 -6 1004.4 1003.0 -0.5 46

 

Местоположение метеостанции Озерки (Ленинградская область, Россия): широта 60.20 долгота 29.00 высота над уровнем моря 11 м.

В архиве по умолчанию представлена погода в Озерках за последнюю неделю. Архивные данные за месяц целиком и за предыдущие месяцы, начиная с января 2011 года, Вы можете получить, выбрав интересующий диапазон дат из раскрывающегося списка и нажав кнопку "Ввод!".


*Определитесь, кто Вы:
робот инопланетянин человек

Внимание! Время в таблицах - всемирное. Для получения местного времени необходимо прибавить поправку, которая равна 3 ч.

Смотрите также архив погоды в соседних городах и на ближайших метеорологических станциях:

Погода в Рощино (Ленинградская область, Россия) (35 км)
Погода в Шепелево (Ленинградская область, Россия) (42 км)
Погода в Сосновом Бору (Ленинградская область, Россия) (43 км)
Погода в Кронштадте (город Санкт-Петербург, Россия) (49 км)
Погода в Ломоносове (город Санкт-Петербург, Россия) (53 км)
Погода в Лисьем Носу (город Санкт-Петербург, Россия) (58 км)
Погода в Выборге (Ленинградская область, Россия) (60 км)
Погода в Санкт-Петербурге (город Санкт-Петербург, Россия) (77 км)
Погода в Коивуниеми (Финляндия) (82 км)
Погода в Сосново (Ленинградская область, Россия) (82 км)

Пояснения к столбцам:

Ветер - указаны скорость ветра в м/с - средняя за 10 мин, порывы в срок и между сроками (в фигурных скобках) и направление, откуда дует ветер: С - северный, СВ - северо-восточный, В - восточный, ЮВ - юго-восточный, Ю - южный, ЮЗ - юго-западный, З - западный, СЗ - северо-западный.
Видимость - горизонтальная дальность видимости в метрах или километрах. При видимости от 1 до 10 км при отсутствии осадков обычно наблюдается дымка, при ухудшении видимости до 1 км и менее - туман. В сухую погоду видимость может ухудшаться дымом, пылью или мглою.
Явления - указаны атмосферные явления, наблюдавшиеся в срок или в последний час перед сроком; фигурными скобками обозначены явления, наблюдавшиеся между сроками (за 1-3 часа до срока); квадратными скобками обозначены град или гололедные отложения с указанием их диаметра в мм.
Облачность - указаны через наклонную черту общая и нижняя облачность в баллах и высота нижней границы облаков в метрах; квадратными скобками обозначены формы облаков: Ci - перистые, Cs - перисто-слоистые, Cc - перисто-кучевые, Ac - высококучевые, As - высокослоистые, Sc - слоисто-кучевые, Ns - слоисто-дождевые, Cu - кучевые, Cb - кучево-дождевые. Подробнее классификацию облаков см. в Атласе облаков (PDF).
T - Температура воздуха - температура, измеренная на высоте 2 м над землей.
Td - Температура точки росы - температура, при понижении до которой содержащийся в воздухе водяной пар достигнет насыщения.
f - Относительная влажность воздуха - влажноcть воздуха, измеренная на высоте 2 м над землей.
Te - Эффективная температура - температура, которую ощущает одетый по сезону человек в тени. Характеристика душности погоды. При расчете учитывается влияние влажности воздуха и скорости ветра на теплоощущения человека.
Tes - Эффективная температура на солнце - температура, которую ощущает человек, с поправкой на солнечный нагрев. Характеристика знойности погоды. Зависит от высоты солнца над горизонтом, облачности и скорости ветра. Ночью, в пасмурную погоду, а также при ветре 12 м/с и более поправка равна нулю.
P - Атмосферное давление - приведенное к уровню моря атмосферное давление.
Po - Атмосферное давление - измеренное на уровне метеостанции атмосферное давление.
Tmin - Минимальная температура - минимум температуры воздуха на высоте 2 м над землей.
Tmax - Максимальная температура - максимум температуры воздуха на высоте 2 м над землей.
R - Количество осадков - Количество выпавших осадков за период времени, мм. При наведении курсора мыши на число - период времени, за который выпало указанное количество осадков.
R24 - Количество осадков - Количество выпавших осадков за 24 часа, мм.
S - Снежный покров - Высота снежного покрова, см. При наведении курсора мыши на число - состояние снежного покрова и степень покрытия местности в баллах.